sat.trackr.live / text

‹ back to catalog

COSMOS 2598 (RODNIK-S *)

NORAD 66648 · 2025-273B

PAYLOAD ACTIVE UNKNOWN

§ Identity

Operator
Country
CIS
Launch date
2025-11-25
Launch site
PLMSC
Launch vehicle
Mass (kg)
RCS (m²)

External: N2YO · Heavens-Above · Gunter

§ Orbital elements

Epoch: 2026-05-25T02:34:30.425376Z

Period
115.86 min
Inclination
82.5036°
Eccentricity
0.0009773
Mean motion
12.42917888 rev/d
Perigee alt
1,486.6 km
Apogee alt
1,502.0 km
Semi-major
7,872.4 km
B*
3.6522e-5
RAAN
184.8926°
Arg perigee
231.5023°
Mean anomaly
128.5181°
Rev number
2,243

§ Raw data

COSMOS 2598 (RODNIK-S *)1 66648U 25273B   26145.10729659  .00000015  00000+0  36522-4 0  99932 66648  82.5036 184.8926 0009773 231.5023 128.5181 12.42917888 22433

JSON: /api/v1/satellites/66648 · /tle

For live sub-satellite position, see the globe view (requires WebGL).

§ Visibility from observer

Set your observer location to see the next 7 days of passes ≥ 10°. The values pass through the URL so the page stays shareable.

No JS? Fill the form by hand. The geolocation button needs JavaScript.